OK1UOJ Weather Reports


time (UTC)temp
C
wind
direction
speed
KPH
gust
KPH
rain 1hr
cm
rain 24hr
cm
rain mn
cm
humidity
%
barometer
mb
20260905183421 16 285 1.6 3.2 0.00 0.00 0.00 10 1022.7
20260905182943 16 294 1.6 3.2 0.00 0.00 0.00 10 1022.7
20260905182028 16 291 1.6 1.6 0.00 0.00 0.00 10 1022.6
20260905181550 17 291 1.6 3.2 0.00 0.00 0.00 10 1022.6
20260905181112 17 309 1.6 3.2 0.00 0.00 0.00 10 1022.5
20260905180634 17 303 1.6 3.2 0.00 0.00 0.00 10 1022.4
20260905180157 17 292 1.6 3.2 0.00 0.00 0.00 10 1022.4
20260905175719 17 307 1.6 3.2 0.00 0.00 0.00 10 1022.3
20260905175241 17 282 1.6 3.2 0.00 0.00 0.00 10 1022.2
20260905174803 18 347 3.2 4.8 0.00 0.00 0.00 96 1022.1
20260905173848 18 323 4.8 6.4 0.00 0.00 0.00 93 1022.0
20260905173410 18 338 4.8 6.4 0.00 0.00 0.00 92 1021.9
20260905172932 18 334 4.8 8.0 0.00 0.00 0.00 91 1021.9
20260905172454 18 330 4.8 11.3 0.00 0.00 0.00 90 1021.8
20260905172016 18 324 4.8 6.4 0.00 0.00 0.00 90 1021.8
20260905171538 18 318 6.4 9.7 0.00 0.00 0.00 89 1021.7
20260905171100 18 338 4.8 11.3 0.00 0.00 0.00 89 1021.7
20260905170144 18 331 8.0 12.9 0.00 0.00 0.00 86 1021.6
20260905165707 18 328 6.4 11.3 0.00 0.00 0.00 88 1021.6
20260905165229 19 321 6.4 9.7 0.00 0.00 0.00 90 1021.6
20260905164751 19 336 4.8 8.0 0.00 0.00 0.00 90 1021.5
20260905164313 19 336 8.0 11.3 0.00 0.00 0.00 88 1021.4
20260905163835 19 322 8.0 12.9 0.00 0.00 0.00 89 1021.4
20260905163357 19 338 8.0 11.3 0.00 0.00 0.00 88 1021.3
20260905162919 19 321 9.7 11.3 0.00 0.00 0.00 85 1021.3
20260905162441 19 321 6.4 11.3 0.00 0.00 0.00 89 1021.3
20260905162003 19 319 8.0 12.9 0.00 0.00 0.00 89 1021.2
20260905161525 19 327 9.7 12.9 0.00 0.00 0.00 87 1021.1
20260905161047 19 318 8.0 11.3 0.00 0.00 0.00 88 1021.1
20260905160609 20 325 9.7 14.5 0.00 0.00 0.00 85 1021.0
20260905155653 20 327 8.0 12.9 0.00 0.00 0.00 83 1021.0
20260905155215 20 338 6.4 11.3 0.00 0.00 0.00 81 1020.9
20260905154737 20 320 8.0 17.7 0.00 0.00 0.00 83 1021.0
20260905154259 20 342 6.4 11.3 0.00 0.00 0.00 86 1020.9
20260905153821 20 331 8.0 12.9 0.00 0.00 0.00 85 1020.9
20260905153343 20 322 9.7 11.3 0.00 0.00 0.00 85 1020.8
20260905152427 20 352 8.0 14.5 0.00 0.00 0.00 82 1020.8
20260905151948 20 322 6.4 11.3 0.00 0.00 0.00 83 1020.8
20260905151510 20 340 6.4 11.3 0.00 0.00 0.00 86 1020.7
20260905151032 20 341 6.4 9.7 0.00 0.00 0.00 85 1020.8
20260905150554 20 333 8.0 0.0 0.00 0.00 0.00 86 1020.8
20260905150116 20 318 8.0 17.7 0.00 0.00 0.00 85 1020.8
20260905145638 20 303 6.4 17.7 0.00 0.00 0.00 89 1020.7
20260905145200 20 326 3.2 6.4 0.00 0.00 0.00 92 1020.7
20260905144722 20 319 8.0 17.7 0.00 0.00 0.00 89 1020.7
20260905144244 20 321 4.8 11.3 0.00 0.00 0.00 90 1020.7
20260905143806 20 315 6.4 9.7 0.00 0.00 0.00 89 1020.7
20260905143328 20 331 6.4 12.9 0.00 0.00 0.00 89 1020.8
20260905142850 20 295 3.2 6.4 0.00 0.00 0.00 93 1020.8
20260905142412 20 320 6.4 16.1 0.00 0.00 0.00 96 1020.7
20260905141455 20 333 6.4 11.3 0.00 0.00 0.00 94 1020.8
20260905141017 20 327 8.0 11.3 0.00 0.00 0.00 96 1020.9
20260905140539 21 300 4.8 11.3 0.00 0.00 0.00 91 1020.8
20260905135622 21 296 3.2 6.4 0.00 0.00 0.00 98 1020.7
20260905134706 21 300 3.2 4.8 0.00 0.00 0.00 10 1020.9
20260905134227 21 317 3.2 4.8 0.00 0.00 0.00 95 1020.9
20260905133749 21 310 6.4 17.7 0.00 0.00 0.00 99 1020.9
20260905133310 21 286 3.2 6.4 0.00 0.00 0.00 10 1020.9
20260905132832 21 343 4.8 11.3 0.00 0.00 0.00 10 1021.0
20260905132354 20 334 9.7 0.0 0.00 0.00 0.00 10 1021.0
20260905131915 21 329 4.8 6.4 0.00 0.00 0.00 99 1021.0
20260905131437 21 324 6.4 11.3 0.00 0.00 0.00 10 1021.0
20260905130958 20 317 9.7 16.1 0.00 0.00 0.00 10 1021.1
20260905130042 21 288 3.2 4.8 0.00 0.00 0.00 99 1021.1
20260905125125 22 303 3.2 4.8 0.00 0.00 0.00 95 1021.1
20260905124646 21 309 6.4 11.3 0.00 0.00 0.00 10 1021.1
20260905124208 20 337 6.4 9.7 0.00 0.00 0.00 10 1021.2
20260905123730 20 307 4.8 17.7 0.00 0.00 0.00 10 1021.1
20260905121855 22 313 3.2 6.4 0.00 0.00 0.00 91 1021.4
20260905121417 22 296 3.2 8.0 0.00 0.00 0.00 91 1021.3
20260905120938 21 284 3.2 4.8 0.00 0.00 0.00 10 1021.4
20260905120500 20 283 8.0 14.5 0.00 0.00 0.00 10 1021.4
20260905120021 20 329 4.8 8.0 0.00 0.00 0.00 10 1021.5
20260905115543 21 290 3.2 6.4 0.00 0.00 0.00 90 1021.6
20260905115104 22 242 4.8 11.3 0.00 0.00 0.00 96 1021.5
20260905114625 22 283 3.2 4.8 0.00 0.00 0.00 91 1021.4
20260905114147 21 303 4.8 9.7 0.00 0.00 0.00 99 1021.6
20260905113708 21 337 3.2 8.0 0.00 0.00 0.00 96 1021.5
20260905113229 22 325 3.2 9.7 0.00 0.00 0.00 87 1021.6
20260905112751 22 290 3.2 4.8 0.00 0.00 0.00 94 1021.5
20260905112312 22 300 3.2 9.7 0.00 0.00 0.00 99 1021.6
20260905111354 21 305 3.2 4.8 0.00 0.00 0.00 10 1021.5
20260905110916 20 277 4.8 14.5 0.00 0.00 0.00 10 1021.5
20260905105959 21 274 4.8 9.7 0.00 0.00 0.00 10 1021.6
20260905105520 21 288 3.2 4.8 0.00 0.00 0.00 10 1021.6
20260905105042 20 303 4.8 8.0 0.00 0.00 0.00 10 1021.5
20260905104603 20 312 3.2 6.4 0.00 0.00 0.00 10 1021.4
20260905103646 20 332 3.2 6.4 0.00 0.00 0.00 10 1021.5
20260905103208 20 307 4.8 6.4 0.00 0.00 0.00 10 1021.5
20260905102730 20 299 3.2 4.8 0.00 0.00 0.00 10 1021.4
20260905102251 20 279 3.2 4.8 0.00 0.00 0.00 10 1021.4
20260905101813 20 289 3.2 6.4 0.00 0.00 0.00 10 1021.3
20260905101335 19 281 3.2 4.8 0.00 0.00 0.00 10 1021.4
20260905100857 18 286 3.2 4.8 0.00 0.00 0.00 10 1021.4
20260905100419 17 302 3.2 6.4 0.00 0.00 0.00 10 1021.5
20260905095941 17 310 3.2 4.8 0.00 0.00 0.00 10 1021.4
20260905095503 18 297 4.8 9.7 0.00 0.00 0.00 10 1021.4
20260905095024 18 300 3.2 4.8 0.00 0.00 0.00 10 1021.5
20260905094546 19 268 1.6 6.4 0.00 0.00 0.00 10 1021.6
20260905094108 19 308 3.2 8.0 0.00 0.00 0.00 10 1021.6
20260905093629 20 323 4.8 12.9 0.00 0.00 0.00 10 1021.6
20260905093151 20 292 3.2 4.8 0.00 0.00 0.00 10 1021.6
20260905092713 20 286 3.2 4.8 0.00 0.00 0.00 10 1021.5
20260905092234 18 311 3.2 4.8 0.00 0.00 0.00 10 1021.6
20260905091756 18 309 4.8 12.9 0.00 0.00 0.00 10 1021.5
20260905090840 17 321 6.4 11.3 0.00 0.00 0.00 10 1021.6
20260905085923 19 324 3.2 4.8 0.00 0.00 0.00 10 1021.6
20260905085445 18 296 3.2 4.8 0.00 0.00 0.00 10 1021.5
20260905085007 18 305 6.4 19.3 0.00 0.00 0.00 10 1021.5
20260905084528 18 338 6.4 12.9 0.00 0.00 0.00 10 1021.4
20260905084050 18 324 3.2 8.0 0.00 0.00 0.00 10 1021.4
20260905083612 18 285 3.2 6.4 0.00 0.00 0.00 10 1021.4
20260905083134 18 282 3.2 4.8 0.00 0.00 0.00 10 1021.3
20260905082655 18 330 3.2 6.4 0.00 0.00 0.00 10 1021.3
20260905082217 18 278 3.2 8.0 0.00 0.00 0.00 10 1021.3
20260905081739 17 301 3.2 6.4 0.00 0.00 0.00 10 1021.3
20260905081301 16 301 3.2 6.4 0.00 0.00 0.00 10 1021.3
20260905080823 17 257 1.6 4.8 0.00 0.00 0.00 10 1021.2
20260905080345 17 297 3.2 3.2 0.00 0.00 0.00 10 1021.1
20260905075907 17 291 3.2 6.4 0.00 0.00 0.00 10 1021.0
20260905075429 17 280 3.2 4.8 0.00 0.00 0.00 10 1021.0
20260905074951 17 298 3.2 4.8 0.00 0.00 0.00 10 1021.0
20260905074513 16 293 3.2 4.8 0.00 0.00 0.00 10 1021.1
20260905074035 16 323 4.8 6.4 0.00 0.00 0.00 10 1021.0
20260905073557 16 312 3.2 6.4 0.00 0.00 0.00 10 1020.9
20260905073119 16 281 1.6 4.8 0.00 0.00 0.00 10 1020.8
20260905072641 16 315 3.2 4.8 0.00 0.00 0.00 10 1020.8
20260905072204 16 294 3.2 4.8 0.00 0.00 0.00 10 1020.8
20260905071726 16 275 1.6 3.2 0.00 0.00 0.00 10 1020.9
20260905071248 17 224 3.2 4.8 0.00 0.00 0.00 10 1020.8
20260905070332 17 205 1.6 4.8 0.00 0.00 0.00 10 1020.9
20260905065854 16 241 1.6 4.8 0.00 0.00 0.00 10 1021.0
20260905065416 16 223 3.2 6.4 0.00 0.00 0.00 10 1021.0
20260905064938 15 204 3.2 6.4 0.00 0.00 0.00 10 1020.9
20260905064501 15 202 3.2 4.8 0.00 0.00 0.00 10 1020.9
20260905064023 14 216 3.2 4.8 0.00 0.00 0.00 10 1021.0
20260905063545 13 221 1.6 4.8 0.00 0.00 0.00 10 1021.0
20260905063108 13 213 1.6 3.2 0.00 0.00 0.00 10 1020.9
20260905062630 13 209 0.0 3.2 0.00 0.00 0.00 10 1020.9
20260905062153 13 190 0.0 1.6 0.00 0.00 0.00 10 1020.8
20260905061715 13 203 0.0 0.0 0.00 0.00 0.00 10 1020.7
20260905060800 12 198 0.0 0.0 0.00 0.00 0.00 10 1020.8
20260905060322 12 220 0.0 1.6 0.00 0.00 0.00 10 1020.7
20260905055407 12 288 0.0 3.2 0.00 0.00 0.00 10 1020.7
20260905054452 12 209 1.6 3.2 0.00 0.00 0.00 10 1020.5
20260905054015 12 216 3.2 4.8 0.00 0.00 0.00 10 1020.5
20260905053537 12 220 3.2 6.4 0.00 0.00 0.00 10 1020.1
20260905053100 12 200 3.2 6.4 0.00 0.00 0.00 10 1020.1
20260905052622 12 197 3.2 6.4 0.00 0.00 0.00 10 1020.0
20260905052145 12 221 3.2 6.4 0.00 0.00 0.00 10 1020.0
20260905051707 12 249 1.6 3.2 0.00 0.00 0.00 10 1020.1
20260905051230 12 221 4.8 8.0 0.00 0.00 0.00 10 1019.8
20260905050752 12 210 6.4 8.0 0.00 0.00 0.00 10 1019.1
20260905050315 12 216 6.4 8.0 0.00 0.00 0.00 10 1019.0
20260905045837 12 216 4.8 4.8 0.00 0.00 0.00 10 1019.2
20260905045400 12 216 4.8 6.4 0.00 0.00 0.00 10 1019.7
20260905044922 12 218 4.8 4.8 0.00 0.00 0.00 10 1019.8
20260905044444 13 216 1.6 4.8 0.00 0.00 0.00 10 1019.9
20260905044007 13 222 4.8 6.4 0.00 0.00 0.00 10 1019.8
20260905043529 13 214 3.2 4.8 0.00 0.00 0.00 10 1020.0
20260905043052 13 259 1.6 3.2 0.00 0.00 0.00 10 1020.1
20260905042614 13 292 1.6 3.2 0.00 0.00 0.00 10 1020.1
20260905042137 13 272 1.6 3.2 0.00 0.00 0.00 10 1020.2
20260905041659 13 266 1.6 4.8 0.00 0.00 0.00 10 1020.1
20260905041221 14 257 1.6 3.2 0.00 0.00 0.00 10 1020.0
20260905040744 14 277 1.6 3.2 0.00 0.00 0.00 10 1019.6
20260905040306 15 254 1.6 3.2 0.00 0.00 0.00 10 1019.1
20260905035829 15 197 0.0 3.2 0.00 0.00 0.00 10 1019.2
20260905035351 15 326 1.6 4.8 0.00 0.00 0.00 10 1019.4
20260905034913 15 327 3.2 4.8 0.00 0.00 0.00 10 1019.3
20260905034436 14 279 0.0 3.2 0.00 0.00 0.00 10 1019.6
20260905033958 14 230 0.0 0.0 0.00 0.00 0.00 10 1019.9
20260905033520 14 228 0.0 0.0 0.00 0.00 0.00 10 1019.4
20260905033043 14 180 0.0 0.0 0.00 0.00 0.00 10 1019.2
20260905032605 15 180 0.0 0.0 0.00 0.00 0.00 10 1018.9
20260905032128 15 180 0.0 0.0 0.00 0.00 0.00 10 1018.7
20260905031650 15 259 0.0 0.0 0.00 0.00 0.00 10 1018.8
20260905030735 15 225 0.0 0.0 0.00 0.00 0.00 10 1018.3
20260905030257 15 225 0.0 0.0 0.00 0.00 0.00 10 1018.1
20260905025819 15 224 3.2 4.8 0.00 0.00 0.00 10 1018.4
20260905025342 15 199 0.0 3.2 0.00 0.00 0.00 10 1018.2
20260905024904 15 225 0.0 1.6 0.00 0.00 0.00 10 1018.5
20260905024426 15 196 0.0 3.2 0.00 0.00 0.00 10 1018.7
20260905023949 15 222 1.6 3.2 0.00 0.00 0.00 10 1018.7
20260905023511 15 277 1.6 1.6 0.00 0.00 0.00 10 1018.5
20260905023034 15 233 0.0 3.2 0.00 0.00 0.00 10 1018.6
20260905022556 15 231 0.0 1.6 0.00 0.00 0.00 10 1018.4
20260905022118 15 268 0.0 3.2 0.00 0.00 0.00 10 1018.6
20260905021640 15 282 1.6 3.2 0.00 0.00 0.00 10 1018.6
20260905021203 15 293 3.2 4.8 0.00 0.00 0.00 10 1018.7
20260905020725 15 302 1.6 3.2 0.00 0.00 0.00 10 1018.5
20260905015810 16 294 1.6 4.8 0.00 0.00 0.00 10 1017.9
20260905015332 16 294 1.6 4.8 0.00 0.00 0.00 10 1017.7
20260905013939 16 343 6.4 9.7 0.00 0.00 0.00 10 1017.9
20260905013501 16 328 4.8 8.0 0.00 0.00 0.00 10 1017.8
20260905013024 16 324 4.8 8.0 0.00 0.00 0.00 10 1017.6
20260905012546 16 334 4.8 8.0 0.00 0.00 0.00 10 1017.5
20260905012108 16 301 3.2 6.4 0.00 0.00 0.00 10 1017.5
20260905011153 16 285 3.2 4.8 0.00 0.00 0.00 10 1017.5
20260905010715 16 297 1.6 3.2 0.00 0.00 0.00 10 1017.6
20260905010237 16 290 1.6 4.8 0.00 0.00 0.00 10 1017.5
20260905005800 16 309 3.2 4.8 0.00 0.00 0.00 10 1017.3
20260905005322 16 303 1.6 4.8 0.00 0.00 0.00 10 1017.4
20260905004844 17 312 1.6 3.2 0.00 0.00 0.00 10 1017.4
20260905004406 17 325 4.8 9.7 0.00 0.00 0.00 10 1017.6
20260905003929 17 333 6.4 8.0 0.00 0.00 0.00 10 1017.5
20260905003451 17 324 6.4 11.3 0.00 0.00 0.00 10 1017.3
20260905003013 17 333 6.4 11.3 0.00 0.00 0.00 10 1017.2
20260905002535 17 311 4.8 9.7 0.00 0.00 0.00 10 1017.1
20260905002057 17 324 6.4 8.0 0.00 0.00 0.00 10 1016.9
20260905000704 17 326 4.8 8.0 0.00 0.00 0.00 10 1016.9
20260905000226 18 312 4.8 8.0 0.00 0.00 0.00 10 1016.9
20260904235748 18 323 3.2 8.0 0.00 0.00 0.00 10 1016.8
20260904235311 18 312 6.4 11.3 0.00 0.00 0.00 10 1016.8
20260904234833 18 303 3.2 8.0 0.00 0.00 0.00 10 1016.3
20260904234355 18 321 6.4 9.7 0.00 0.00 0.00 10 1016.1
20260904233917 18 315 4.8 6.4 0.00 0.00 0.00 10 1015.7
20260904233439 18 340 4.8 6.4 0.00 0.00 0.00 10 1015.7
20260904233001 18 325 6.4 8.0 0.00 0.00 0.00 10 1015.7
20260904231607 18 332 8.0 12.9 0.00 0.00 0.00 10 1015.3
20260904231129 18 321 6.4 12.9 0.00 0.00 0.00 10 1015.1
20260904230651 18 328 8.0 12.9 0.00 0.00 0.00 10 1015.0
20260904230213 19 317 9.7 0.0 0.00 0.00 0.00 10 1014.9
20260904225735 19 324 6.4 11.3 0.00 0.00 0.00 10 1014.7
20260904225259 19 339 6.4 9.7 0.00 0.00 0.00 10 1014.6
20260904223903 20 322 1.6 3.2 0.00 0.00 0.00 10 1014.0
20260904223426 20 253 0.0 0.0 0.00 0.00 0.00 10 1013.6
20260904222947 20 250 1.6 3.2 0.00 0.00 0.00 10 1013.5
20260904222510 20 280 1.6 3.2 0.00 0.00 0.00 10 1013.6
20260904222032 20 319 1.6 6.4 0.00 0.00 0.00 10 1013.6
20260904221115 20 282 1.6 3.2 0.00 0.00 0.00 10 1013.4
20260904220637 21 324 3.2 4.8 0.00 0.00 0.00 10 1013.4
20260904220159 21 309 1.6 3.2 0.00 0.00 0.00 10 1013.2
20260904215721 21 290 0.0 1.6 0.00 0.00 0.00 10 1013.1
20260904215243 21 288 1.6 3.2 0.00 0.00 0.00 10 1013.0
20260904214805 22 307 3.2 6.4 0.00 0.00 0.00 10 1013.0
20260904214327 22 304 1.6 3.2 0.00 0.00 0.00 10 1013.0
20260904213849 22 331 4.8 12.9 0.00 0.00 0.00 10 1013.0
20260904213410 23 228 4.8 6.4 0.00 0.00 0.00 10 1013.0
20260904212932 23 218 4.8 8.0 0.00 0.00 0.00 10 1012.6
20260904212454 23 212 6.4 6.4 0.00 0.00 0.00 10 1012.4
20260904211537 23 219 4.8 6.4 0.00 0.00 0.00 10 1012.4
20260904211059 23 215 4.8 6.4 0.00 0.00 0.00 10 1012.4
20260904210621 23 225 4.8 6.4 0.00 0.00 0.00 10 1012.4
20260904205705 23 219 6.4 8.0 0.00 0.00 0.00 10 1012.4
20260904205226 23 222 6.4 6.4 0.00 0.00 0.00 10 1012.4
20260904204748 23 219 4.8 6.4 0.00 0.00 0.00 10 1012.5
20260904204310 23 222 4.8 6.4 0.00 0.00 0.00 10 1012.6
20260904203832 23 222 4.8 8.0 0.00 0.00 0.00 10 1012.6
20260904203353 23 213 4.8 6.4 0.00 0.00 0.00 10 1012.7
20260904202915 23 219 4.8 6.4 0.00 0.00 0.00 10 1012.7
20260904202437 23 219 4.8 6.4 0.00 0.00 0.00 10 1012.8
20260904201959 23 225 4.8 4.8 0.00 0.00 0.00 10 1012.8
20260904201520 23 225 4.8 6.4 0.00 0.00 0.00 10 1012.8
20260904201042 23 219 4.8 4.8 0.00 0.00 0.00 10 1012.9
20260904200604 23 222 4.8 4.8 0.00 0.00 0.00 10 1012.9
20260904200126 23 225 4.8 4.8 0.00 0.00 0.00 10 1012.9
20260904195648 23 222 4.8 4.8 0.00 0.00 0.00 10 1012.9
20260904195209 23 225 4.8 4.8 0.00 0.00 0.00 10 1013.0
20260904194731 23 218 4.8 6.4 0.00 0.00 0.00 10 1013.1
20260904194253 23 221 4.8 4.8 0.00 0.00 0.00 10 1013.0
20260904193815 23 219 4.8 4.8 0.00 0.00 0.00 10 1013.1
20260904193336 23 221 4.8 4.8 0.00 0.00 0.00 10 1013.1
20260904192858 23 216 4.8 4.8 0.00 0.00 0.00 10 1013.1
20260904192420 23 215 4.8 4.8 0.00 0.00 0.00 10 1013.1
20260904191941 23 222 4.8 4.8 0.00 0.00 0.00 10 1013.1
20260904191503 23 216 4.8 6.4 0.00 0.00 0.00 10 1013.0
20260904191025 23 222 4.8 6.4 0.00 0.00 0.00 10 1013.1
20260904190547 23 222 4.8 4.8 0.00 0.00 0.00 10 1013.1
20260904190108 23 221 4.8 6.4 0.00 0.00 0.00 10 1013.1
20260904185630 23 224 4.8 4.8 0.00 0.00 0.00 10 1013.1
20260904185152 23 219 4.8 4.8 0.00 0.00 0.00 10 1013.1
20260904184713 23 219 4.8 6.4 0.00 0.00 0.00 10 1013.1
20260904184235 23 225 4.8 4.8 0.00 0.00 0.00 10 1013.1